Retour au catalogue

COSMOS 1754

ActifNavigationLEO
NORAD 16764·PAYLOAD·🇷🇺 Russia

Lancé Jun 6, 1986 depuis Plesetsk Cosmodrome

Loading…

Prochains Passages (prochaines 24 heures)

TLE

FraisSource: Space-Track

Époque: Sep 14, 2026, 08:28 UTC

1 16764U 86042G   26257.35340211 -.00000008  00000-0  54711-4 0  9996
2 16764  74.0154 108.3090 0020786 237.9877 295.5520 12.52612469666255

Suivez COSMOS 1754 en temps réel avec AllMySat

Download on the App Store